www.pogodaiklimat.ru

Погода и климат >> Архив погоды >> Австралия >> Западная Австралия >> Онслоу


ПОГОДА в Онслоу

  • Прогноз погоды в Онслоу
  • Монитор погоды в Онслоу

АРХИВ ПОГОДЫ в Онслоу

Время (UTC), дата Ветер
(напр.,м/с)
 
Видим.   Явления Облачность Т
(С)
Тd
(С)
f
(%)
Тe
(С)
Тes
(С)
Комфортность P
(гПа)
Po
(гПа)
Тmin
(С)
Tmax
(С)
R
(мм)
R24
(мм)
S
(см)
13 14.05 С 2 н/о н/о +21.0 +16.2 74 +25 +25 комфорт 1018.7 1017.4 +30.8
15 14.05 Ю 4 н/о н/о +18.4 +12.2 67 +19 +19 1018.8 1017.5
16 14.05 Ю 3 н/о н/о +18.3 +11.6 65 +19 +19 1018.6 1017.3
18 14.05 Ю 4 н/о н/о +17.5 +9.9 61 +17 +17 1018.4 1017.1
19 14.05 ЮВ 2 н/о н/о +16.3 +9.0 62 +16 +16 1018.0 1016.7
21 14.05 ЮВ 3 н/о н/о +14.9 +6.7 58 +14 +14 1017.9 1016.6
22 14.05 В 3 н/о н/о +14.7 +8.6 67 +14 +14 1018.1 1016.8
00 15.05 В 3 н/о н/о +19.1 +10.9 59 +20 +20 1019.3 1018.0
01 15.05 ЮВ 4 н/о н/о +22.9 +10.0 44 +25 +25 комфорт 1019.4 1018.1 +13.9
03 15.05 В 4 н/о н/о +29.3 0.0 15 +27 +27 жарко 1018.6 1017.3
04 15.05 СВ 3 н/о н/о +30.7 -4.4 10 +27 +27 жарко 1017.8 1016.5
06 15.05 СЗ 4 н/о н/о +30.4 +0.9 15 +28 +28 жарко 1016.3 1015.0
07 15.05 СЗ 4 н/о н/о +30.0 +3.1 18 +28 +28 жарко 1016.1 1014.8
09 15.05 СЗ 4 н/о н/о +26.8 +11.7 39 +28 +28 жарко 1016.1 1014.8
10 15.05 СЗ 3 н/о н/о +23.8 +13.1 51 +26 +26 жарко 1016.4 1015.1
12 15.05 ЮЗ 4 н/о н/о +21.3 +14.2 64 +24 +24 комфорт 1017.4 1016.1
13 15.05 ЮЗ 3 н/о н/о +20.8 +11.2 54 +23 +23 комфорт 1017.9 1016.6 +32.3
15 15.05 Ю 3 н/о н/о +19.8 +8.5 48 +21 +21 комфорт 1017.9 1016.6
16 15.05 Ю 2 н/о н/о +19.0 +9.5 54 +20 +20 1017.5 1016.2
18 15.05 Ю 4 н/о н/о +17.5 +6.4 48 +17 +17 1016.8 1015.5
19 15.05 Ю 2 н/о н/о +17.5 +7.3 51 +18 +18 1016.5 1015.2
21 15.05 В 3 н/о н/о +16.3 +5.6 49 +16 +16 1016.6 1015.3
22 15.05 В 3 н/о н/о +16.7 +7.1 53 +17 +17 1016.8 1015.5
00 16.05 Ю 3 н/о н/о +19.9 +6.6 42 +21 +21 комфорт 1017.4 1016.1
01 16.05 ЮВ 3 н/о н/о +24.0 +2.2 24 +23 +23 комфорт 1017.9 1016.6 +16.4
03 16.05 ЮВ 2 н/о н/о +30.8 -1.9 12 +28 +28 жарко 1017.2 1015.9
04 16.05 СЗ 3 н/о н/о +31.2 +4.9 19 +29 +29 жарко 1016.6 1015.3
06 16.05 СЗ 4 н/о н/о +31.4 +4.2 18 +29 +29 жарко 1015.3 1014.0
07 16.05 СЗ 4 н/о н/о +30.7 +7.8 24 +30 +30 жарко 1015.1 1013.8
09 16.05 З 4 н/о н/о +28.6 +9.8 31 +29 +29 жарко 1015.4 1014.1
10 16.05 З 3 н/о н/о +24.4 +16.9 63 +28 +28 душно 1015.7 1014.4
12 16.05 З 4 н/о н/о +22.4 +17.1 72 +27 +27 душно 1016.4 1015.1
13 16.05 З 5 н/о н/о +21.9 +11.3 51 +24 +24 комфорт 1016.8 1015.5 +32.4
15 16.05 З 4 н/о н/о +21.3 +15.8 71 +25 +25 комфорт 1016.6 1015.3
16 16.05 ЮЗ 4 н/о н/о +20.1 +14.9 72 +23 +23 комфорт 1016.4 1015.1
18 16.05 Ю 5 н/о н/о +20.4 +9.6 50 +22 +22 комфорт 1015.7 1014.4
19 16.05 ЮЗ 4 н/о н/о +19.6 +6.4 42 +20 +20 1015.3 1014.0
21 16.05 Ю 6 н/о н/о +18.2 +1.3 32 +18 +18 1015.5 1014.2
22 16.05 Ю 5 н/о н/о +17.4 +1.0 33 +17 +17 1015.7 1014.4
00 17.05 Ю 6 н/о н/о +20.1 +1.5 29 +20 +20 1016.6 1015.3
01 17.05 Ю 7 н/о н/о +24.1 -0.2 20 +23 +23 комфорт 1017.0 1015.7 +17.3
03 17.05 ЮВ 6 н/о н/о +30.9 -5.6 9 +27 +27 жарко 1016.2 1014.9
04 17.05 ЮВ 5 н/о н/о +32.9 -5.7 8 +29 +29 жарко 1015.7 1014.4
06 17.05 Ю 4 н/о н/о +33.7 -6.8 7 +29 +29 жарко 1013.7 1012.4
07 17.05 Ю 4 н/о н/о +33.6 -6.9 7 +29 +29 жарко 1013.3 1012.0
09 17.05 Ю 4 н/о н/о +32.2 -4.6 9 +28 +28 жарко 1013.5 1012.2
10 17.05 Ю 4 н/о н/о +27.8 +3.5 21 +26 +26 жарко 1013.8 1012.5
12 17.05 Ю 5 н/о н/о +24.2 +4.6 28 +24 +24 комфорт 1015.0 1013.7
13 17.05 Ю 5 н/о н/о +23.5 +3.4 27 +23 +23 комфорт 1015.6 1014.3 +34.4
15 17.05 Ю 5 н/о н/о +21.5 +5.0 34 +22 +22 комфорт 1015.8 1014.5
16 17.05 Ю 6 н/о н/о +21.5 +7.0 39 +22 +22 комфорт 1015.8 1014.5
18 17.05 Ю 6 н/о н/о +20.0 +7.7 45 +21 +21 комфорт 1015.4 1014.1
19 17.05 Ю 6 н/о н/о +19.4 +7.5 46 +20 +20 1015.2 1013.9
21 17.05 Ю 5 н/о н/о +17.9 +7.0 49 +18 +18 1015.0 1013.7
22 17.05 Ю 4 н/о н/о +17.1 +6.9 51 +17 +17 1015.3 1014.0
00 18.05 Ю 5 н/о н/о +19.2 +4.9 39 +19 +19 1016.5 1015.2
01 18.05 ЮВ 5 н/о н/о +22.3 +4.8 32 +23 +23 комфорт 1016.9 1015.6 +15.8
03 18.05 В 4 н/о н/о +28.3 +2.5 19 +26 +26 жарко 1016.9 1015.6
04 18.05 С 5 н/о н/о +29.5 +1.9 17 +27 +27 жарко 1016.2 1014.9
06 18.05 С 5 н/о н/о +28.2 +8.0 28 +28 +28 жарко 1015.0 1013.7
07 18.05 С 6 н/о н/о +27.8 +10.5 34 +28 +28 жарко 1014.9 1013.6
09 18.05 С 6 н/о н/о +25.8 +15.2 52 +29 +29 душно 1015.2 1013.9
10 18.05 С 4 н/о {туман} н/о +23.5 +16.5 65 +27 +27 душно 1015.6 1014.3
12 18.05 З 2 н/о н/о +21.0 +17.4 80 +26 +26 душно 1017.0 1015.7
13 18.05 ЮЗ 1 н/о {туман} н/о +20.3 +16.3 78 +24 +24 комфорт 1017.4 1016.1
15 18.05 ЮВ 2 н/о н/о +19.5 +15.2 76 +22 +22 комфорт 1017.3 1016.0
16 18.05 В 2 н/о н/о +19.2 +15.9 81 +21 +21 комфорт 1017.1 1015.8
18 18.05 ЮВ 2 н/о н/о +17.6 +14.3 81 +18 +18 1016.9 1015.6
19 18.05 Ю 3 н/о 10/10 50 м
[]
+16.8 +14.1 84 +17 +17 1016.8 1015.5
21 18.05 В 3 н/о н/о +16.1 +13.9 87 +16 +16 1016.4 1015.1
22 18.05 ЮВ 3 н/о н/о +16.5 +14.5 88 +16 +16 1016.7 1015.4
00 19.05 В 3 н/о н/о +20.2 +17.8 86 +24 +24 комфорт 1018.0 1016.7
01 19.05 В 3 н/о н/о +22.8 +18.6 77 +29 +29 очень
душно
1018.8 1017.5
03 19.05 СВ 3 н/о н/о +26.5 +16.7 55 +30 +30 душно 1018.2 1016.9
04 19.05 С 4 н/о н/о +28.0 +11.5 36 +29 +29 жарко 1017.6 1016.3
06 19.05 С 6 н/о н/о +28.2 +10.4 33 +29 +29 жарко 1016.3 1015.0
07 19.05 С 6 н/о н/о +27.6 +11.6 37 +29 +29 жарко 1015.9 1014.6
09 19.05 С 4 н/о н/о +25.8 +14.6 50 +28 +28 жарко 1015.8 1014.5
10 19.05 С 3 н/о н/о +23.1 +16.2 65 +28 +28 душно 1016.0 1014.7
12 19.05 СЗ 3 н/о н/о +20.7 +17.1 80 +25 +25 комфорт 1017.3 1016.0
13 19.05 З 3 н/о н/о +19.9 +17.1 84 +23 +23 комфорт 1018.0 1016.7 +29.5
15 19.05 З 4 н/о н/о +19.8 +17.4 86 +23 +23 комфорт 1018.5 1017.2
16 19.05 ЮЗ 4 н/о н/о +19.1 +16.5 85 +21 +21 комфорт 1018.4 1017.1
18 19.05 Ю 3 н/о н/о +18.6 +16.4 87 +20 +20 1017.8 1016.5
19 19.05 ЮВ 3 н/о н/о +17.7 +15.9 89 +18 +18 1017.8 1016.5
21 19.05 ЮВ 3 н/о н/о +17.2 +15.9 92 +17 +17 1017.8 1016.5
22 19.05 ЮВ 3 100 м 6/6 <50 м
[]
+16.7 +15.6 93 +16 +16 1018.1 1016.8
00 20.05 ЮВ 2 н/о н/о +18.4 +17.6 95 +20 +20 1019.6 1018.3
01 20.05 Ю 4 н/о н/о +22.1 +19.5 85 +28 +28 душно 1020.1 1018.8 +16.3
03 20.05 Ю 4 н/о н/о +27.4 +13.4 42 +29 +29 жарко 1019.4 1018.1
04 20.05 ЮВ 3 н/о н/о +29.3 +10.9 32 +30 +30 жарко 1018.6 1017.3
06 20.05 СЗ 5 н/о н/о +30.3 +14.4 38 +32 +32 жарко 1017.2 1015.9
07 20.05 З 5 н/о н/о +29.5 +16.0 44 +33 +33 душно 1017.2 1015.9
09 20.05 З 6 н/о н/о +26.5 +18.1 60 +31 +31 душно 1017.2 1015.9
10 20.05 З 4 н/о н/о +25.1 +13.0 47 +27 +27 жарко 1017.4 1016.1
12 20.05 З 4 н/о н/о +21.9 +12.7 56 +24 +24 комфорт 1018.3 1017.0
13 20.05 З 4 н/о н/о +21.3 +12.7 58 +24 +24 комфорт 1018.6 1017.3 +32.1
15 20.05 ЮЗ 5 н/о н/о +21.7 +15.5 68 +25 +25 комфорт 1018.6 1017.3
16 20.05 ЮЗ 5 н/о н/о +21.0 +15.3 70 +24 +24 комфорт 1018.4 1017.1
18 20.05 Ю 5 н/о н/о +19.9 +14.0 69 +22 +22 комфорт 1017.7 1016.4
19 20.05 Ю 4 н/о н/о +19.4 +13.8 70 +21 +21 комфорт 1017.4 1016.1
21 20.05 Ю 4 н/о н/о +18.1 +12.5 70 +18 +18 1017.5 1016.2
22 20.05 Ю 4 н/о н/о +17.7 +12.2 70 +17 +17 1018.0 1016.7
00 21.05 Ю 4 н/о н/о +20.9 +10.1 50 +23 +23 комфорт 1018.9 1017.6
01 21.05 ЮВ 3 н/о н/о +24.5 +8.5 36 +25 +25 комфорт 1019.4 1018.1 +17.4
03 21.05 ЮВ 3 н/о н/о +30.5 +5.0 20 +29 +29 жарко 1018.6 1017.3
04 21.05 ЮЗ 2 н/о н/о +31.5 +7.9 23 +30 +30 жарко 1017.7 1016.4
06 21.05 СЗ 5 н/о н/о +31.6 +11.4 29 +32 +32 жарко 1016.2 1014.9
07 21.05 З 6 н/о н/о +30.1 +12.5 34 +31 +31 жарко 1016.1 1014.8
09 21.05 З 5 н/о н/о +27.8 +13.3 41 +30 +30 жарко 1016.3 1015.0
10 21.05 З 5 н/о н/о +24.6 +17.6 65 +29 +29 душно 1016.9 1015.6
12 21.05 З 3 н/о н/о +21.9 +12.7 56 +24 +24 комфорт 1018.1 1016.8
13 21.05 З 3 н/о н/о +21.0 +15.5 71 +25 +25 комфорт 1018.4 1017.1

 

Местоположение метеостанции Онслоу (Западная Австралия, Австралия): широта -21.67 долгота 115.12 высота над уровнем моря 4 м.

В архиве по умолчанию представлена погода в Онслоу за последнюю неделю. Архивные данные за месяц целиком и за предыдущие месяцы, начиная с января 2011 года, Вы можете получить, выбрав интересующий диапазон дат из раскрывающегося списка и нажав кнопку "Ввод!".


*Определитесь, кто Вы:
робот инопланетянин человек

Внимание! Время в таблицах - всемирное. Для получения местного времени необходимо прибавить поправку, которая равна 8 ч.

Смотрите также архив погоды в соседних городах и на ближайших метеорологических станциях:

Погода на Острове Тевенард (Западная Австралия, Австралия) (27 км)
Погода в Барроу-Айленд (Западная Австралия, Австралия) (93 км)
Погода в Марди (Западная Австралия, Австралия) (104 км)
Погода на Острове Варанас (Западная Австралия, Австралия) (123 км)
Погода в Лермонте (Западная Австралия, Австралия) (124 км)
Погода в Каррате (Западная Австралия, Австралия) (201 км)
Погода в Роборн аэропорту (Западная Австралия, Австралия) (234 км)
Погода в Параберду (Западная Австралия, Австралия) (318 км)
Погода в Карнарвоне (Западная Австралия, Австралия) (387 км)
Погода в Порт-Хедленде Apardoo (Западная Австралия, Австралия) (392 км)

Пояснения к столбцам:

Ветер - указаны скорость ветра в м/с - средняя за 10 мин, порывы в срок и между сроками (в фигурных скобках) и направление, откуда дует ветер: С - северный, СВ - северо-восточный, В - восточный, ЮВ - юго-восточный, Ю - южный, ЮЗ - юго-западный, З - западный, СЗ - северо-западный.
Видимость - горизонтальная дальность видимости в метрах или километрах. При видимости от 1 до 10 км при отсутствии осадков обычно наблюдается дымка, при ухудшении видимости до 1 км и менее - туман. В сухую погоду видимость может ухудшаться дымом, пылью или мглою.
Явления - указаны атмосферные явления, наблюдавшиеся в срок или в последний час перед сроком; фигурными скобками обозначены явления, наблюдавшиеся между сроками (за 1-3 часа до срока); квадратными скобками обозначены град или гололедные отложения с указанием их диаметра в мм.
Облачность - указаны через наклонную черту общая и нижняя облачность в баллах и высота нижней границы облаков в метрах; квадратными скобками обозначены формы облаков: Ci - перистые, Cs - перисто-слоистые, Cc - перисто-кучевые, Ac - высококучевые, As - высокослоистые, Sc - слоисто-кучевые, Ns - слоисто-дождевые, Cu - кучевые, Cb - кучево-дождевые. Подробнее классификацию облаков см. в Атласе облаков (PDF).
T - Температура воздуха - температура, измеренная на высоте 2 м над землей.
Td - Температура точки росы - температура, при понижении до которой содержащийся в воздухе водяной пар достигнет насыщения.
f - Относительная влажность воздуха - влажноcть воздуха, измеренная на высоте 2 м над землей.
Te - Эффективная температура - температура, которую ощущает одетый по сезону человек в тени. Характеристика душности погоды. При расчете учитывается влияние влажности воздуха и скорости ветра на теплоощущения человека.
Tes - Эффективная температура на солнце - температура, которую ощущает человек, с поправкой на солнечный нагрев. Характеристика знойности погоды. Зависит от высоты солнца над горизонтом, облачности и скорости ветра. Ночью, в пасмурную погоду, а также при ветре 12 м/с и более поправка равна нулю.
P - Атмосферное давление - приведенное к уровню моря атмосферное давление.
Po - Атмосферное давление - измеренное на уровне метеостанции атмосферное давление.
Tmin - Минимальная температура - минимум температуры воздуха на высоте 2 м над землей.
Tmax - Максимальная температура - максимум температуры воздуха на высоте 2 м над землей.
R - Количество осадков - Количество выпавших осадков за период времени, мм. При наведении курсора мыши на число - период времени, за который выпало указанное количество осадков.
R24 - Количество осадков - Количество выпавших осадков за 24 часа, мм.
S - Снежный покров - Высота снежного покрова, см. При наведении курсора мыши на число - состояние снежного покрова и степень покрытия местности в баллах.